FW6376 Weather Reports


Display with metric or nautical units.
time (UTC)temp
F
wind
direction
speed
MPH
gust
MPH
rain 1hr
in
rain 24hr
in
rain mn
in
humidity
%
barometer
mb
20260507161524 55 220 2.0 8.0 0.00 0.62 0.00 37 1008.9
20260507160025 54 244 1.0 10.0 0.00 0.62 0.00 35 1009.3
20260507154520 54 318 2.0 9.0 0.00 0.64 0.00 40 1009.5
20260507153015 53 217 2.0 12.0 0.00 0.64 0.00 37 1009.4
20260507151515 53 279 2.0 11.0 0.00 0.64 0.00 40 1009.6
20260507150013 53 265 3.0 11.0 0.00 0.64 0.00 40 1009.6
20260507144514 53 305 4.0 10.0 0.00 0.65 0.00 41 1009.6
20260507143009 53 246 3.0 10.0 0.00 0.65 0.00 48 1009.6
20260507141505 52 250 1.0 8.0 0.00 0.65 0.00 49 1009.4
20260507140004 52 200 4.0 8.0 0.00 0.65 0.00 49 1009.3
20260507134557 51 280 3.0 9.0 0.00 0.65 0.00 52 1009.3
20260507133054 50 44 2.0 9.0 0.00 0.65 0.00 57 1009.2
20260507131549 49 346 1.0 5.0 0.00 0.65 0.00 67 1009.4
20260507130045 48 288 0.0 3.0 0.00 0.65 0.00 75 1009.4
20260507124543 47 246 0.0 3.0 0.00 0.65 0.00 75 1009.5
20260507123040 46 234 0.0 2.0 0.00 0.65 0.00 80 1009.4
20260507121538 45 234 0.0 2.0 0.00 0.65 0.00 81 1009.5
20260507120038 45 234 0.0 1.0 0.00 0.65 0.00 81 1009.2
20260507114537 44 234 0.0 2.0 0.00 0.65 0.00 82 1009.3
20260507113035 43 234 0.0 2.0 0.00 0.65 0.00 81 1009.2
20260507111542 41 234 0.0 2.0 0.00 0.65 0.00 82 1009.2
20260507110034 41 234 0.0 0.0 0.00 0.65 0.00 81 1009.3
20260507104530 40 234 0.0 1.0 0.00 0.65 0.00 81 1009.3
20260507103035 40 234 0.0 1.0 0.00 0.65 0.00 81 1009.2
20260507101629 40 234 0.0 1.0 0.00 0.65 0.00 81 1009.1
20260507100033 40 234 0.0 1.0 0.00 0.65 0.00 81 1008.8
20260507094531 40 234 0.0 1.0 0.00 0.65 0.00 81 1009.2
20260507093022 40 234 0.0 1.0 0.00 0.65 0.00 81 1009.0
20260507091526 40 234 0.0 0.0 0.00 0.65 0.00 81 1009.2
20260507090019 40 234 0.0 0.0 0.00 0.65 0.00 81 1009.3
20260507084523 40 234 0.0 1.0 0.00 0.65 0.00 81 1009.2
20260507083015 41 234 0.0 1.0 0.00 0.65 0.00 81 1009.2
20260507081521 41 234 0.0 2.0 0.00 0.65 0.00 81 1009.2
20260507080013 41 234 0.0 0.0 0.00 0.65 0.00 81 1009.2
20260507074513 42 234 0.0 0.0 0.00 0.65 0.00 81 1008.9
20260507073009 42 234 0.0 0.0 0.00 0.65 0.00 81 1008.7
20260507071509 43 234 0.0 0.0 0.00 0.65 0.00 81 1008.6
20260507070011 43 234 0.0 0.0 0.00 0.65 0.00 81 1008.5
20260507064507 43 234 0.0 1.0 0.00 0.65 0.00 81 1008.6
20260507063005 43 234 0.0 3.0 0.00 0.65 0.00 81 1008.5
20260507061505 43 234 0.0 1.0 0.00 0.65 0.00 81 1008.5
20260507060010 43 234 0.0 1.0 0.00 0.65 0.00 81 1008.4
20260507054504 43 234 0.0 0.0 0.00 0.65 0.00 81 1009.2
20260507053001 43 234 0.0 0.0 0.00 0.65 0.00 81 1009.1
20260507051601 43 234 0.0 0.0 0.00 0.65 0.00 81 1008.8
20260507050058 44 234 0.0 1.0 0.00 0.65 0.00 80 1009.0
20260507044600 44 234 0.0 1.0 0.00 0.65 0.00 80 1008.5
20260507043057 44 234 0.0 0.0 0.00 0.65 0.00 80 1008.8
20260507041551 45 234 0.0 1.0 0.00 0.65 0.00 80 1008.8
20260507040048 45 234 0.0 2.0 0.00 0.65 0.00 80 1008.4
20260507034548 46 234 0.0 0.0 0.00 0.65 0.65 80 1008.4
20260507033046 46 234 0.0 0.0 0.01 0.65 0.65 80 1008.8
20260507031547 46 234 0.0 0.0 0.01 0.65 0.65 80 1008.9
20260507030050 46 234 0.0 1.0 0.01 0.65 0.65 80 1008.9
20260507024549 46 236 0.0 3.0 0.01 0.65 0.65 80 1008.9
20260507023044 46 279 0.0 2.0 0.01 0.64 0.64 80 1009.2
20260507021541 47 279 0.0 1.0 0.02 0.64 0.64 80 1009.1
20260507020046 47 279 0.0 0.0 0.04 0.64 0.64 80 1008.9
20260507014538 47 279 0.0 2.0 0.08 0.64 0.64 80 1008.9
20260507013036 47 287 0.0 0.0 0.09 0.63 0.63 80 1008.9
20260507011535 48 287 0.0 2.0 0.10 0.62 0.62 80 1008.8
20260507010040 48 360 0.0 2.0 0.08 0.60 0.60 80 1008.5
20260507004535 48 360 0.0 0.0 0.05 0.56 0.56 79 1008.3
20260507003033 48 360 0.0 3.0 0.03 0.54 0.54 78 1008.1
20260507001538 48 33 0.0 2.0 0.01 0.52 0.52 78 1007.8
20260507000033 48 76 0.0 8.0 0.00 0.51 0.51 78 1007.7
20260506234528 48 94 4.0 9.0 0.00 0.51 0.51 77 1007.0
20260506233026 49 51 0.0 9.0 0.00 0.51 0.51 77 1006.9
20260506231526 50 5 0.0 3.0 0.00 0.51 0.51 77 1006.8
20260506230021 51 109 1.0 6.0 0.00 0.51 0.51 77 1006.3
20260506224520 52 84 2.0 6.0 0.00 0.51 0.51 76 1006.4
20260506223016 53 71 1.0 5.0 0.00 0.51 0.51 77 1006.1
20260506221516 54 190 0.0 1.0 0.01 0.51 0.51 77 1005.8
20260506220016 54 190 0.0 2.0 0.04 0.51 0.51 77 1005.5
20260506214516 55 190 0.0 4.0 0.05 0.53 0.51 77 1005.4
20260506213015 56 169 0.0 3.0 0.07 0.53 0.51 76 1005.3
20260506211514 59 208 0.0 4.0 0.09 0.52 0.50 75 1005.2
20260506210020 61 26 0.0 2.0 0.08 0.49 0.47 78 1004.8
20260506204514 60 286 0.0 3.0 0.07 0.48 0.46 78 1004.7
20260506203012 60 288 0.0 4.0 0.05 0.46 0.44 78 1004.7
20260506201512 61 273 0.0 2.0 0.02 0.43 0.41 77 1004.8
20260506200010 61 263 2.0 4.0 0.01 0.41 0.39 77 1004.9
20260506194507 61 252 0.0 4.0 0.01 0.41 0.39 77 1004.9
20260506193007 61 235 0.0 5.0 0.01 0.41 0.39 78 1005.1
20260506191504 60 64 0.0 4.0 0.03 0.41 0.39 78 1005.1
20260506190001 60 360 0.0 3.0 0.15 0.40 0.38 79 1005.5
20260506184603 59 348 0.0 3.0 0.20 0.40 0.38 80 1005.7
20260506184502 59 348 0.0 1.0 0.21 0.40 0.38 80 1005.7
20260506183109 59 341 1.0 2.0 0.25 0.40 0.38 80 1005.7
20260506181600 58 338 0.0 6.0 0.27 0.38 0.36 79 1006.0
20260506180057 59 18 0.0 1.0 0.17 0.26 0.24 79 1006.0
20260506174555 60 218 0.0 2.0 0.12 0.20 0.18 79 1006.2
20260506173054 60 218 0.0 0.0 0.08 0.15 0.13 79 1006.4
20260506171557 60 218 0.0 0.0 0.06 0.11 0.09 79 1006.6
20260506170052 59 218 0.0 1.0 0.04 0.09 0.07 78 1006.5
20260506164557 59 218 0.0 0.0 0.03 0.08 0.06 77 1006.6
20260506163049 59 218 0.0 3.0 0.03 0.07 0.05 77 1007.1
20260506161546 60 217 0.0 1.0 0.01 0.05 0.03 77 1007.0